| time (UTC) | temp F | wind direction | speed knots | gust knots | rain 1hr in | rain 24hr in | rain mn in | humidity % | barometer mb |
| 20260505010003 | 68 | 136 | 2.6 | 4.3 | 0.00 | 0.00 | 0.00 | 62 | 1002.0 |
| 20260505005459 | 68 | 161 | 0.9 | 4.3 | 0.00 | 0.00 | 0.00 | 62 | 1001.8 |
| 20260505004957 | 68 | 112 | 1.7 | 2.6 | 0.00 | 0.00 | 0.00 | 62 | 1001.8 |
| 20260505004454 | 68 | 108 | 1.7 | 4.3 | 0.00 | 0.00 | 0.00 | 61 | 1001.6 |
| 20260505003951 | 68 | 145 | 2.6 | 8.7 | 0.00 | 0.00 | 0.00 | 60 | 1001.8 |
| 20260505003448 | 69 | 115 | 2.6 | 4.3 | 0.00 | 0.00 | 0.00 | 61 | 1001.9 |
| 20260505002944 | 69 | 104 | 1.7 | 4.3 | 0.00 | 0.00 | 0.00 | 60 | 1001.8 |
| 20260505002440 | 69 | 123 | 1.7 | 2.6 | 0.00 | 0.00 | 0.00 | 60 | 1001.7 |
| 20260505001939 | 70 | 86 | 0.9 | 4.3 | 0.00 | 0.00 | 0.00 | 60 | 1001.9 |
| 20260505001436 | 70 | 144 | 0.9 | 4.3 | 0.00 | 0.00 | 0.00 | 59 | 1002.0 |
| 20260505000933 | 70 | 127 | 2.6 | 2.6 | 0.00 | 0.00 | 0.00 | 59 | 1001.8 |
| 20260505000431 | 70 | 136 | 2.6 | 4.3 | 0.00 | 0.00 | 0.00 | 58 | 1001.9 |
| 20260504235927 | 71 | 151 | 3.5 | 5.2 | 0.00 | 0.00 | 0.00 | 58 | 1001.8 |
| 20260504235425 | 71 | 119 | 1.7 | 5.2 | 0.00 | 0.00 | 0.00 | 57 | 1001.7 |
| 20260504234921 | 71 | 152 | 2.6 | 5.2 | 0.00 | 0.00 | 0.00 | 57 | 1001.8 |
| 20260504234419 | 71 | 95 | 1.7 | 6.1 | 0.00 | 0.00 | 0.00 | 56 | 1001.6 |
| 20260504233915 | 71 | 149 | 3.5 | 7.8 | 0.00 | 0.00 | 0.00 | 55 | 1001.9 |
| 20260504233411 | 72 | 140 | 2.6 | 5.2 | 0.00 | 0.00 | 0.00 | 55 | 1001.7 |
| 20260504232908 | 72 | 151 | 1.7 | 4.3 | 0.00 | 0.00 | 0.00 | 54 | 1001.8 |
| 20260504232405 | 72 | 127 | 2.6 | 6.1 | 0.00 | 0.00 | 0.00 | 54 | 1001.9 |
| 20260504231902 | 72 | 192 | 7.0 | 10.4 | 0.00 | 0.00 | 0.00 | 53 | 1001.9 |
| 20260504231358 | 72 | 178 | 2.6 | 5.2 | 0.00 | 0.00 | 0.00 | 53 | 1001.9 |
| 20260504230854 | 72 | 135 | 2.6 | 9.6 | 0.00 | 0.00 | 0.00 | 52 | 1001.9 |
| 20260504230352 | 73 | 46 | 3.5 | 5.2 | 0.00 | 0.00 | 0.00 | 51 | 1002.1 |
| 20260504225850 | 73 | 145 | 5.2 | 7.0 | 0.00 | 0.00 | 0.00 | 50 | 1002.1 |
| 20260504225346 | 73 | 141 | 3.5 | 4.3 | 0.00 | 0.00 | 0.00 | 49 | 1002.1 |
| 20260504224844 | 73 | 104 | 0.9 | 5.2 | 0.00 | 0.00 | 0.00 | 49 | 1002.2 |
| 20260504224341 | 73 | 141 | 1.7 | 7.0 | 0.00 | 0.00 | 0.00 | 49 | 1002.3 |
| 20260504223838 | 73 | 125 | 2.6 | 10.4 | 0.00 | 0.00 | 0.00 | 48 | 1002.4 |
| 20260504223333 | 73 | 122 | 2.6 | 5.2 | 0.00 | 0.00 | 0.00 | 47 | 1002.5 |
| 20260504222830 | 74 | 127 | 4.3 | 5.2 | 0.00 | 0.00 | 0.00 | 46 | 1002.5 |
| 20260504222327 | 74 | 132 | 4.3 | 4.3 | 0.00 | 0.00 | 0.00 | 45 | 1002.4 |
| 20260504221825 | 75 | 131 | 1.7 | 8.7 | 0.00 | 0.00 | 0.00 | 45 | 1002.5 |
| 20260504221321 | 75 | 96 | 3.5 | 7.8 | 0.00 | 0.00 | 0.00 | 44 | 1002.5 |
| 20260504220819 | 75 | 40 | 1.7 | 7.8 | 0.00 | 0.00 | 0.00 | 44 | 1002.4 |
| 20260504220315 | 75 | 146 | 5.2 | 5.2 | 0.00 | 0.00 | 0.00 | 43 | 1002.4 |
| 20260504215813 | 75 | 100 | 4.3 | 12.2 | 0.00 | 0.00 | 0.00 | 42 | 1002.3 |
| 20260504215309 | 76 | 121 | 2.6 | 5.2 | 0.00 | 0.00 | 0.00 | 43 | 1002.1 |
| 20260504214805 | 76 | 69 | 2.6 | 10.4 | 0.00 | 0.00 | 0.00 | 43 | 1002.1 |
| 20260504214302 | 76 | 151 | 4.3 | 8.7 | 0.00 | 0.00 | 0.00 | 43 | 1002.1 |
| 20260504213758 | 77 | 132 | 4.3 | 8.7 | 0.00 | 0.00 | 0.00 | 43 | 1002.2 |
| 20260504213254 | 77 | 63 | 2.6 | 8.7 | 0.00 | 0.00 | 0.00 | 43 | 1002.1 |
| 20260504212752 | 76 | 79 | 2.6 | 5.2 | 0.00 | 0.00 | 0.00 | 43 | 1002.2 |
| 20260504212248 | 77 | 145 | 5.2 | 7.8 | 0.00 | 0.00 | 0.00 | 42 | 1002.1 |
| 20260504211746 | 77 | 113 | 5.2 | 10.4 | 0.00 | 0.00 | 0.00 | 42 | 1002.1 |
| 20260504211242 | 77 | 135 | 4.3 | 10.4 | 0.00 | 0.00 | 0.00 | 40 | 1001.9 |
| 20260504210739 | 77 | 70 | 1.7 | 7.0 | 0.00 | 0.00 | 0.00 | 42 | 1002.1 |
| 20260504210236 | 78 | 125 | 7.0 | 9.6 | 0.00 | 0.00 | 0.00 | 40 | 1002.0 |
| 20260504205733 | 79 | 219 | 2.6 | 7.8 | 0.00 | 0.00 | 0.00 | 40 | 1002.1 |
| 20260504205231 | 79 | 74 | 0.0 | 3.5 | 0.00 | 0.00 | 0.00 | 42 | 1002.0 |
| 20260504204729 | 79 | 128 | 3.5 | 6.1 | 0.00 | 0.00 | 0.00 | 42 | 1002.4 |
| 20260504204227 | 78 | 108 | 2.6 | 4.3 | 0.00 | 0.00 | 0.00 | 45 | 1002.1 |
| 20260504203726 | 78 | 119 | 0.9 | 5.2 | 0.00 | 0.00 | 0.00 | 44 | 1002.1 |
| 20260504203223 | 78 | 79 | 1.7 | 7.0 | 0.00 | 0.00 | 0.00 | 42 | 1002.0 |
| 20260504202723 | 78 | 130 | 2.6 | 9.6 | 0.00 | 0.00 | 0.00 | 43 | 1001.9 |
| 20260504202221 | 78 | 174 | 2.6 | 7.8 | 0.00 | 0.00 | 0.00 | 42 | 1002.0 |
| 20260504201718 | 78 | 156 | 0.9 | 5.2 | 0.00 | 0.00 | 0.00 | 43 | 1002.1 |
| 20260504201215 | 78 | 168 | 3.5 | 6.1 | 0.00 | 0.00 | 0.00 | 43 | 1002.1 |
| 20260504200712 | 78 | 114 | 3.5 | 6.1 | 0.00 | 0.00 | 0.00 | 43 | 1002.2 |
| 20260504200208 | 78 | 132 | 1.7 | 7.8 | 0.00 | 0.00 | 0.00 | 43 | 1002.2 |
| 20260504195705 | 78 | 159 | 1.7 | 7.8 | 0.00 | 0.00 | 0.00 | 42 | 1002.3 |
| 20260504195201 | 79 | 216 | 1.7 | 7.0 | 0.00 | 0.00 | 0.00 | 43 | 1002.4 |
| 20260504194658 | 78 | 102 | 2.6 | 7.0 | 0.00 | 0.00 | 0.00 | 43 | 1002.5 |
| 20260504194154 | 77 | 151 | 1.7 | 4.3 | 0.00 | 0.00 | 0.00 | 45 | 1002.5 |
| 20260504193650 | 78 | 124 | 5.2 | 5.2 | 0.00 | 0.00 | 0.00 | 44 | 1002.8 |
| 20260504193148 | 78 | 154 | 7.0 | 10.4 | 0.00 | 0.00 | 0.00 | 44 | 1002.7 |
| 20260504192646 | 77 | 150 | 2.6 | 5.2 | 0.00 | 0.00 | 0.00 | 44 | 1002.6 |
| 20260504192144 | 78 | 68 | 3.5 | 7.0 | 0.00 | 0.00 | 0.00 | 43 | 1002.8 |
| 20260504191642 | 79 | 97 | 1.7 | 7.8 | 0.00 | 0.00 | 0.00 | 45 | 1002.6 |
| 20260504191138 | 78 | 177 | 2.6 | 5.2 | 0.00 | 0.00 | 0.00 | 44 | 1002.6 |
| 20260504190634 | 78 | 65 | 1.7 | 3.5 | 0.00 | 0.00 | 0.00 | 45 | 1002.8 |
| 20260504190131 | 78 | 158 | 1.7 | 6.1 | 0.00 | 0.00 | 0.00 | 44 | 1002.6 |
| 20260504185627 | 78 | 170 | 1.7 | 5.2 | 0.00 | 0.00 | 0.00 | 47 | 1002.6 |
| 20260504185124 | 78 | 72 | 1.7 | 6.1 | 0.00 | 0.00 | 0.00 | 47 | 1002.7 |
| 20260504184620 | 78 | 99 | 2.6 | 5.2 | 0.00 | 0.00 | 0.00 | 47 | 1002.9 |
| 20260504184115 | 76 | 156 | 3.5 | 9.6 | 0.00 | 0.00 | 0.00 | 46 | 1002.8 |
| 20260504183613 | 76 | 157 | 5.2 | 7.0 | 0.00 | 0.00 | 0.00 | 47 | 1002.9 |
| 20260504183110 | 77 | 68 | 1.7 | 4.3 | 0.00 | 0.00 | 0.00 | 47 | 1003.1 |
| 20260504182608 | 77 | 83 | 2.6 | 9.6 | 0.00 | 0.00 | 0.00 | 45 | 1002.9 |
| 20260504182105 | 77 | 141 | 1.7 | 6.1 | 0.00 | 0.00 | 0.00 | 45 | 1003.1 |
| 20260504181602 | 78 | 169 | 4.3 | 5.2 | 0.00 | 0.00 | 0.00 | 46 | 1003.2 |
| 20260504181100 | 77 | 140 | 4.3 | 6.1 | 0.00 | 0.00 | 0.00 | 47 | 1003.1 |
| 20260504180558 | 76 | 131 | 3.5 | 6.1 | 0.00 | 0.00 | 0.00 | 49 | 1003.2 |
| 20260504180057 | 77 | 151 | 4.3 | 7.8 | 0.00 | 0.00 | 0.00 | 47 | 1003.3 |
| 20260504175554 | 76 | 162 | 4.3 | 7.0 | 0.00 | 0.00 | 0.00 | 48 | 1003.0 |
| 20260504175050 | 76 | 145 | 3.5 | 7.0 | 0.00 | 0.00 | 0.00 | 49 | 1003.3 |
| 20260504174549 | 76 | 165 | 3.5 | 10.4 | 0.00 | 0.00 | 0.00 | 49 | 1003.2 |
| 20260504174045 | 77 | 173 | 3.5 | 6.1 | 0.00 | 0.00 | 0.00 | 47 | 1003.2 |
| 20260504173542 | 76 | 173 | 2.6 | 5.2 | 0.00 | 0.00 | 0.00 | 49 | 1003.6 |
| 20260504173040 | 76 | 174 | 4.3 | 6.1 | 0.00 | 0.00 | 0.00 | 48 | 1003.5 |
| 20260504172535 | 75 | 163 | 1.7 | 6.1 | 0.00 | 0.00 | 0.00 | 50 | 1003.8 |
| 20260504172032 | 75 | 151 | 4.3 | 12.2 | 0.00 | 0.00 | 0.00 | 48 | 1003.7 |
| 20260504171529 | 74 | 173 | 2.6 | 6.1 | 0.00 | 0.00 | 0.00 | 50 | 1003.7 |
| 20260504171026 | 75 | 89 | 0.9 | 5.2 | 0.00 | 0.00 | 0.00 | 49 | 1003.8 |
| 20260504170522 | 74 | 171 | 0.9 | 7.8 | 0.00 | 0.00 | 0.00 | 49 | 1004.1 |
| 20260504160442 | 72 | 141 | 0.9 | 5.2 | 0.00 | 0.00 | 0.00 | 52 | 1004.9 |
| 20260504150906 | 71 | 113 | 1.7 | 3.5 | 0.00 | 0.00 | 0.00 | 53 | 1005.4 |
| 20260504150402 | 71 | 148 | 3.5 | 5.2 | 0.00 | 0.00 | 0.00 | 51 | 1005.5 |
| 20260504141332 | 66 | 115 | 2.6 | 7.0 | 0.00 | 0.00 | 0.00 | 55 | 1006.0 |
| 20260504140829 | 66 | 129 | 1.7 | 3.5 | 0.00 | 0.00 | 0.00 | 56 | 1006.1 |
| 20260504140325 | 66 | 77 | 1.7 | 3.5 | 0.00 | 0.00 | 0.00 | 57 | 1006.0 |
| 20260504130754 | 60 | 110 | 1.7 | 4.3 | 0.00 | 0.00 | 0.00 | 62 | 1006.3 |
| 20260504130250 | 60 | 130 | 1.7 | 7.0 | 0.00 | 0.00 | 0.00 | 62 | 1006.1 |
| 20260504120214 | 53 | 143 | 3.5 | 4.3 | 0.00 | 0.00 | 0.00 | 73 | 1006.9 |
| 20260504110641 | 49 | 109 | 2.6 | 3.5 | 0.00 | 0.00 | 0.00 | 80 | 1006.5 |
| 20260504110137 | 48 | 120 | 0.0 | 2.6 | 0.00 | 0.00 | 0.00 | 80 | 1006.7 |
| 20260504100557 | 49 | 129 | 2.6 | 5.2 | 0.00 | 0.00 | 0.00 | 79 | 1006.8 |
| 20260504081950 | 44 | 115 | 2.6 | 2.6 | 0.00 | 0.00 | 0.00 | 91 | 1007.1 |
| 20260504081448 | 44 | 111 | 1.7 | 2.6 | 0.00 | 0.00 | 0.00 | 92 | 1007.2 |
| 20260504080943 | 44 | 109 | 1.7 | 2.6 | 0.00 | 0.00 | 0.00 | 92 | 1007.4 |
| 20260504080440 | 43 | 107 | 1.7 | 2.6 | 0.00 | 0.00 | 0.00 | 93 | 1007.4 |
| 20260504070408 | 42 | 95 | 1.7 | 2.6 | 0.00 | 0.00 | 0.00 | 93 | 1007.9 |
| 20260504050254 | 46 | 94 | 1.7 | 2.6 | 0.00 | 0.00 | 0.00 | 84 | 1009.2 |
| 20260504045751 | 46 | 101 | 1.7 | 1.7 | 0.00 | 0.00 | 0.00 | 84 | 1009.2 |
| 20260504045250 | 47 | 109 | 1.7 | 2.6 | 0.00 | 0.00 | 0.00 | 83 | 1009.3 |
| 20260504044748 | 47 | 89 | 0.9 | 2.6 | 0.00 | 0.00 | 0.00 | 83 | 1009.2 |
| 20260504044246 | 46 | 65 | 1.7 | 3.5 | 0.00 | 0.00 | 0.00 | 84 | 1009.2 |
| 20260504043743 | 46 | 109 | 1.7 | 2.6 | 0.00 | 0.00 | 0.00 | 84 | 1009.2 |
| 20260504043239 | 46 | 132 | 1.7 | 2.6 | 0.00 | 0.00 | 0.00 | 84 | 1009.4 |
| 20260504042737 | 46 | 96 | 0.9 | 1.7 | 0.00 | 0.00 | 0.00 | 84 | 1009.3 |
| 20260504042233 | 46 | 82 | 1.7 | 1.7 | 0.00 | 0.00 | 0.00 | 84 | 1009.4 |
| 20260504041730 | 46 | 99 | 1.7 | 2.6 | 0.00 | 0.00 | 0.00 | 83 | 1009.4 |
| 20260504041226 | 47 | 109 | 1.7 | 2.6 | 0.00 | 0.00 | 0.00 | 83 | 1009.6 |
| 20260504040722 | 47 | 64 | 1.7 | 1.7 | 0.00 | 0.00 | 0.00 | 82 | 1009.7 |
| 20260504040219 | 48 | 66 | 1.7 | 2.6 | 0.00 | 0.00 | 0.00 | 81 | 1009.6 |
| 20260504035716 | 48 | 96 | 1.7 | 2.6 | 0.00 | 0.00 | 0.00 | 81 | 1009.4 |
| 20260504035213 | 48 | 96 | 1.7 | 1.7 | 0.00 | 0.00 | 0.00 | 80 | 1009.7 |
| 20260504034710 | 48 | 101 | 0.9 | 3.5 | 0.00 | 0.00 | 0.00 | 80 | 1009.6 |
| 20260504034208 | 48 | 102 | 2.6 | 2.6 | 0.00 | 0.00 | 0.00 | 80 | 1009.8 |
| 20260504033705 | 48 | 97 | 1.7 | 2.6 | 0.00 | 0.00 | 0.00 | 80 | 1009.9 |
| 20260504033202 | 48 | 137 | 3.5 | 3.5 | 0.00 | 0.00 | 0.00 | 81 | 1009.9 |
| 20260504032659 | 48 | 94 | 1.7 | 2.6 | 0.00 | 0.00 | 0.00 | 81 | 1010.0 |
| 20260504032156 | 48 | 93 | 1.7 | 2.6 | 0.00 | 0.00 | 0.00 | 81 | 1010.1 |
| 20260504031653 | 47 | 109 | 1.7 | 2.6 | 0.00 | 0.00 | 0.00 | 83 | 1010.0 |
| 20260504031149 | 47 | 94 | 1.7 | 2.6 | 0.00 | 0.00 | 0.00 | 83 | 1010.0 |
| 20260504030646 | 47 | 107 | 4.3 | 4.3 | 0.00 | 0.00 | 0.00 | 83 | 1010.1 |
| 20260504030143 | 47 | 95 | 1.7 | 2.6 | 0.00 | 0.00 | 0.00 | 83 | 1010.2 |
| 20260504025640 | 46 | 86 | 1.7 | 2.6 | 0.00 | 0.00 | 0.00 | 83 | 1010.1 |
| 20260504025136 | 46 | 86 | 1.7 | 2.6 | 0.00 | 0.00 | 0.00 | 84 | 1010.2 |
| 20260504024634 | 47 | 82 | 1.7 | 2.6 | 0.00 | 0.00 | 0.00 | 83 | 1010.3 |
| 20260504024130 | 47 | 115 | 0.9 | 1.7 | 0.00 | 0.00 | 0.00 | 83 | 1010.2 |
| 20260504023627 | 47 | 78 | 1.7 | 2.6 | 0.00 | 0.00 | 0.00 | 82 | 1010.3 |
| 20260504023123 | 47 | 72 | 1.7 | 1.7 | 0.00 | 0.00 | 0.00 | 82 | 1010.4 |
| 20260504022619 | 47 | 86 | 1.7 | 1.7 | 0.00 | 0.00 | 0.00 | 82 | 1010.3 |
| 20260504022115 | 47 | 86 | 1.7 | 1.7 | 0.00 | 0.00 | 0.00 | 82 | 1010.5 |
| 20260504021614 | 47 | 91 | 1.7 | 1.7 | 0.00 | 0.00 | 0.00 | 81 | 1010.3 |
| 20260504021110 | 48 | 77 | 1.7 | 2.6 | 0.00 | 0.00 | 0.00 | 81 | 1010.2 |
| 20260504020607 | 48 | 57 | 1.7 | 2.6 | 0.00 | 0.00 | 0.00 | 80 | 1010.2 |
| 20260504020103 | 48 | 142 | 2.6 | 2.6 | 0.00 | 0.00 | 0.00 | 81 | 1010.6 |
| 20260504015600 | 48 | 115 | 2.6 | 3.5 | 0.00 | 0.00 | 0.00 | 81 | 1010.2 |
| 20260504015055 | 48 | 84 | 1.7 | 2.6 | 0.00 | 0.00 | 0.00 | 80 | 1010.4 |
| 20260504014552 | 49 | 99 | 1.7 | 2.6 | 0.00 | 0.00 | 0.00 | 80 | 1010.4 |
| 20260504014049 | 49 | 88 | 1.7 | 2.6 | 0.00 | 0.00 | 0.00 | 79 | 1010.5 |
| 20260504013547 | 49 | 98 | 1.7 | 2.6 | 0.00 | 0.00 | 0.00 | 78 | 1010.4 |
| 20260504013044 | 50 | 109 | 1.7 | 2.6 | 0.00 | 0.00 | 0.00 | 78 | 1010.3 |
| 20260504012541 | 50 | 108 | 1.7 | 3.5 | 0.00 | 0.00 | 0.00 | 78 | 1010.4 |
| 20260504012039 | 50 | 126 | 1.7 | 2.6 | 0.00 | 0.00 | 0.00 | 77 | 1010.2 |
| 20260504011535 | 50 | 113 | 1.7 | 4.3 | 0.00 | 0.00 | 0.00 | 77 | 1010.4 |
| 20260504011031 | 50 | 113 | 1.7 | 3.5 | 0.00 | 0.00 | 0.00 | 77 | 1010.3 |
| 20260504010527 | 50 | 138 | 3.5 | 3.5 | 0.00 | 0.00 | 0.00 | 77 | 1010.4 |